Location: Unspecified
(0.0000°N, 0.0000°E)
Time: 01:27:51
(UTC+00:00)

Vanguard 1 Rocket - Pass Details

Date: 27 November 2019
Orbit: 650 x 4226 km, 34.3° (Epoch: 10 December)

Event Time Altitude Azimuth Distance (km) Brightness Sun altitude
Rises 21:59:55 0° 245° (WSW) 7,685 12.6 -56.2°
Reaches altitude 10° 22:06:13 10° 250° (WSW) 6,149 11.9 -57.4°
Enters shadow 22:16:25 33° 273° (W) 3,565 10.3 -59.2°
